Location: Oberwangen
(47.4286°N, 8.9679°E)
Time: 08:29:55
(UTC+00:00)

Cosmos 1447 Rocket - Pass Details

Date: 30 October 2021
Orbit: 953 x 996 km, 82.9° (Epoch: 27 November)

Event Time Altitude Azimuth Distance (km) Brightness Sun altitude
Rises 05:13:49 0° 146° (SE) 3,657 8.2 -9.2°
Reaches altitude 10° 05:16:50 10° 132° (SE) 2,708 7.9 -8.7°
Maximum altitude 05:21:31 23° 82° (E) 1,918 7.1 -7.9°
Drops below altitude 10° 05:26:12 10° 33° (NNE) 2,702 7.1 -7.1°
Sets 05:29:11 0° 20° (NNE) 3,649 7.6 -6.6°
